Погода в Слободском

Россия / Ростовская область     47°25′57″N   40°49′57″E
темп.,
°C
ветер,
м/с
пор.,
м/с
влажн.,
%
обл.,
%
осадки,
мм/ч
давл.,
гПа
погр.,
м
14 мая, пт
пт1400:00+15в338413 0.0 101432
03:00+14в46880 0.0 101390
06:00+14в410825 0.0 1013192
09:00+21вюв61065100 0.0 1013435
12:00+25вюв5756100 0.0 1012732
15:00+27юв455332 0.0 1012876
18:00+25ююв34705 0.0 1011129
21:00+19юв2280100 0.0 101111
15 мая, сб
сб1500:00+18вюв228589 0.0 101119
03:00+16вюв2283100 0.0 101218
06:00+17юв018295 0.1 101345
09:00+21всв33712 0.1 1013317
12:00+26ссв11635 0.0 1013801
15:00+28в12535 0.0 10131390
18:00+26в34690 0.0 1012137
21:00+21в11795 0.0 101211
16 мая, вс
вс1600:00+19св228287 0.0 101212
03:00+17св3481100 0.0 101162
06:00+15всв3569100 0.0 1011104
09:00+20в4659100 0.0 1011418
12:00+25вюв7947100 0.0 1010900
15:00+27юв6125155 0.0 10091415
18:00+26в2464100 0.0 100766
21:00+20в41070100 0.0 1008162
17 мая, пн
пн1700:00+18в41561100 0.0 1007282
03:00+17в51555100 0.0 1007311
06:00+16в515631 0.0 1007338
09:00+22вюв712565 0.0 1007803
12:00+26вюв810475 0.0 10071154
15:00+27ююв58475 0.0 10061278
18:00+26ююз246599 0.0 1007148
21:00+21ююз3379100 0.0 100825
18 мая, вт
вт1800:00+19зюз3791100 0.0 1008158
03:00+17ююз3795100 3.4 1009188
06:00+17зюз2495100 7.2 1010182
09:00+20зюз4583100 7.2 1011561
12:00+23юз456994 0.0 1012964
15:00+21з477999 0.1 1011407
18:00+23зюз467598 0.0 1012462
21:00+17зюз37800 0.0 1013126